KC8YVF-1 Weather Reports


Display with metric or nautical units.
time (UTC)temp
F
wind
direction
speed
MPH
gust
MPH
rain 1hr
in
rain 24hr
in
rain mn
in
humidity
%
barometer
mb
20260503232509 59 225 0.0 0.0 0.18 0.18 0.18 54 993.2
20260503232352 60 225 0.0 0.0 0.18 0.18 0.18 54 993.4
20260503231010 60 180 0.0 0.0 0.18 0.18 0.18 53 993.5
20260503230853 60 203 0.0 0.0 0.18 0.18 0.18 53 993.5
20260503230509 60 248 0.0 0.0 0.18 0.00 0.18 53 993.5
20260503225512 60 180 2.0 2.0 0.00 0.00 0.00 53 993.5
20260503225351 60 135 0.0 0.0 0.00 0.00 0.00 53 993.5
20260503224510 60 158 0.0 0.0 0.00 0.00 0.00 53 993.5
20260503224009 59 225 0.0 0.0 0.00 0.00 0.00 53 993.5
20260503223852 59 203 0.0 0.0 0.00 0.00 0.00 53 993.5
20260503223510 59 180 0.0 0.0 0.00 0.00 0.00 53 993.5
20260503222510 59 248 0.0 0.0 0.00 0.00 0.00 52 993.9
20260503222351 59 203 0.0 0.0 0.00 0.00 0.00 52 993.9
20260503222009 59 225 0.0 0.0 0.00 0.00 0.00 52 993.9
20260503221510 59 248 0.0 0.0 0.00 0.00 0.00 51 993.9
20260503221009 59 180 0.0 0.0 0.00 0.00 0.00 51 993.9
20260503220852 59 248 0.0 0.0 0.00 0.00 0.00 51 993.9
20260503220510 59 248 0.0 0.0 0.00 0.00 0.00 50 993.9
20260503215351 60 248 0.0 0.0 0.00 0.00 0.00 49 993.9
20260503215009 60 203 0.0 0.0 0.00 0.00 0.00 49 993.9
20260503214511 61 248 0.0 0.0 0.00 0.00 0.00 47 993.9
20260503213851 62 270 0.0 0.0 0.00 0.00 0.00 47 994.0
20260503213509 62 315 0.0 0.0 0.00 0.00 0.00 46 993.9
20260503213010 62 248 0.0 0.0 0.00 0.00 0.00 46 993.9
20260503212510 63 225 0.0 0.0 0.00 0.00 0.00 46 993.9
20260503212353 63 248 0.0 0.0 0.00 0.00 0.00 45 993.9
20260503212009 64 248 0.0 0.0 0.00 0.00 0.00 46 993.9
20260503211510 64 158 0.0 0.0 0.00 0.00 0.00 45 993.9
20260503211010 65 293 0.0 0.0 0.00 0.00 0.00 45 993.9
20260503210853 65 248 0.0 0.0 0.00 0.00 0.00 45 993.7
20260503210509 65 293 0.0 0.0 0.00 0.00 0.00 46 993.9
20260503205509 66 248 0.0 0.0 0.00 0.00 0.00 45 993.9
20260503205351 66 270 0.0 0.0 0.00 0.00 0.00 45 993.9
20260503205010 66 225 0.0 0.0 0.00 0.00 0.00 44 993.9
20260503204010 66 203 0.0 0.0 0.00 0.00 0.00 44 993.9
20260503203853 66 270 0.0 0.0 0.00 0.00 0.00 44 993.9
20260503203510 66 248 0.0 0.0 0.00 0.00 0.00 44 993.9
20260503203011 66 248 0.0 0.0 0.00 0.00 0.00 44 993.9
20260503202510 66 248 0.0 0.0 0.00 0.00 0.00 44 993.9
20260503202353 66 248 0.0 0.0 0.00 0.00 0.00 44 993.9
20260503202009 66 315 0.0 0.0 0.00 0.00 0.00 44 993.9
20260503201510 67 203 0.0 0.0 0.00 0.00 0.00 46 994.1
20260503201009 66 225 0.0 0.0 0.00 0.00 0.00 45 993.9
20260503200852 66 293 0.0 0.0 0.00 0.00 0.00 45 994.1
20260503200510 66 180 0.0 0.0 0.00 0.00 0.00 45 994.0
20260503200010 66 248 0.0 0.0 0.00 0.00 0.00 46 994.2
20260503195510 66 180 0.0 0.0 0.00 0.00 0.00 46 994.2
20260503195353 66 135 0.0 0.0 0.00 0.00 0.00 47 994.2
20260503195010 66 203 0.0 0.0 0.00 0.00 0.00 47 994.2
20260503194511 65 158 0.0 0.0 0.00 0.00 0.00 47 994.3
20260503194010 65 203 0.0 0.0 0.00 0.00 0.00 47 994.4
20260503193851 65 180 0.0 0.0 0.00 0.00 0.00 48 994.5
20260503193009 65 248 0.0 0.0 0.00 0.00 0.00 47 994.5
20260503192511 65 225 0.0 0.0 0.00 0.00 0.00 48 994.5
20260503192352 65 270 0.0 0.0 0.00 0.00 0.00 48 994.5
20260503192010 65 180 0.0 0.0 0.00 0.00 0.00 49 994.5
20260503191510 65 293 0.0 0.0 0.00 0.00 0.00 49 994.7
20260503191011 65 225 0.0 0.0 0.00 0.00 0.00 49 994.9
20260503190852 65 225 0.0 0.0 0.00 0.00 0.00 49 994.9
20260503190509 65 248 0.0 0.0 0.00 0.00 0.00 49 994.9
20260503190010 65 203 0.0 0.0 0.00 0.00 0.00 48 994.9
20260503185510 65 203 0.0 0.0 0.00 0.00 0.00 49 994.9
20260503185352 65 225 0.0 0.0 0.00 0.00 0.00 49 994.9
20260503185010 65 248 0.0 0.0 0.00 0.00 0.00 49 994.9
20260503184510 65 225 0.0 0.0 0.00 0.00 0.00 49 994.9
20260503184010 64 248 0.0 0.0 0.00 0.00 0.00 50 994.9
20260503183853 64 248 0.0 0.0 0.00 0.00 0.00 50 994.9
20260503183010 63 270 0.0 0.0 0.00 0.00 0.00 49 995.2
20260503182510 64 293 0.0 0.0 0.00 0.00 0.00 49 995.2
20260503182353 64 293 0.0 0.0 0.00 0.00 0.00 49 995.2
20260503181510 63 248 0.0 0.0 0.00 0.00 0.00 50 995.2
20260503181010 62 180 0.0 0.0 0.00 0.00 0.00 50 995.2
20260503180853 62 270 0.0 0.0 0.00 0.00 0.00 50 995.2
20260503180010 61 270 0.0 0.0 0.00 0.00 0.00 49 995.5
20260503175510 62 225 0.0 0.0 0.00 0.00 0.00 50 995.5
20260503175353 62 248 0.0 0.0 0.00 0.00 0.00 51 995.5
20260503175010 61 248 0.0 0.0 0.00 0.00 0.00 50 995.5
20260503174509 61 180 0.0 0.0 0.00 0.00 0.00 51 995.5
20260503173852 60 248 0.0 0.0 0.00 0.00 0.00 52 995.5
20260503173509 59 248 0.0 0.0 0.00 0.00 0.00 52 995.5
20260503173010 59 203 0.0 0.0 0.00 0.00 0.00 51 995.9
20260503172351 59 225 0.0 0.0 0.00 0.00 0.00 52 996.1
20260503172010 59 248 0.0 0.0 0.00 0.00 0.00 52 996.2
20260503171511 59 225 0.0 0.0 0.00 0.00 0.00 53 996.2
20260503170853 58 203 0.0 0.0 0.00 0.00 0.00 53 996.2
20260503170509 58 248 0.0 0.0 0.00 0.00 0.00 53 996.2
20260503150851 52 270 0.0 0.0 0.00 0.00 0.00 57 997.6
20260503150510 52 225 0.0 0.0 0.00 0.00 0.00 57 997.6
20260503131010 49 203 0.0 0.0 0.00 0.00 0.00 61 997.9
20260503130851 48 203 0.0 0.0 0.00 0.00 0.00 61 997.9
20260503110509 37 225 0.0 0.0 0.00 0.00 0.00 67 998.3
20260503090510 37 158 0.0 0.0 0.00 0.00 0.00 67 999.2
20260503081509 36 225 0.0 0.0 0.00 0.00 0.00 67 999.6
20260503081010 36 225 0.0 0.0 0.00 0.00 0.00 67 999.6
20260503080853 36 225 0.0 0.0 0.00 0.00 0.00 67 999.6
20260503072353 36 225 0.0 0.0 0.00 0.00 0.00 65 1000.0
20260503072010 36 225 0.0 0.0 0.00 0.00 0.00 65 1000.0
20260503071510 36 225 0.0 0.0 0.00 0.00 0.00 65 1000.0
20260503071010 36 225 0.0 0.0 0.00 0.00 0.00 65 1000.0
20260503070852 36 225 0.0 0.0 0.00 0.00 0.00 65 1000.0
20260503070511 36 225 0.0 0.0 0.00 0.00 0.00 65 1000.0
20260503055011 38 225 0.0 0.0 0.00 0.00 0.00 62 1001.0
20260503053853 38 225 0.0 0.0 0.00 0.00 0.00 61 1001.0
20260503053511 38 225 0.0 0.0 0.00 0.00 0.00 61 1001.0
20260503053011 38 225 0.0 0.0 0.00 0.00 0.00 61 1001.0
20260503052510 38 225 0.0 0.0 0.00 0.00 0.00 61 1001.0
20260503052353 38 225 0.0 0.0 0.00 0.00 0.00 61 1001.0
20260503052010 38 225 0.0 0.0 0.00 0.00 0.00 61 1001.0
20260503051511 39 225 0.0 0.0 0.00 0.00 0.00 61 1001.0
20260503050852 39 225 0.0 0.0 0.00 0.00 0.00 61 1001.0
20260503050511 39 225 0.0 0.0 0.00 0.00 0.00 60 1001.0
20260503045511 39 225 0.0 0.0 0.00 0.00 0.00 60 1001.0
20260503045352 39 225 0.0 0.0 0.00 0.00 0.00 60 1001.0
20260503045011 39 225 0.0 0.0 0.00 0.00 0.00 60 1001.0
20260503044009 40 225 0.0 0.0 0.00 0.00 0.00 60 1001.0
20260503043852 40 225 0.0 0.0 0.00 0.00 0.00 60 1001.0
20260503043511 40 225 0.0 0.0 0.00 0.00 0.00 60 1001.0
20260503042512 40 225 0.0 0.0 0.00 0.00 0.00 59 1001.0
20260503042352 40 225 0.0 0.0 0.00 0.00 0.00 59 1001.1
20260503042011 40 225 0.0 0.0 0.00 0.00 0.00 58 1001.0
20260503041510 40 225 0.0 0.0 0.00 0.00 0.00 58 1001.1
20260503040853 41 225 0.0 0.0 0.00 0.00 0.00 58 1001.1
20260503040510 41 225 0.0 0.0 0.00 0.00 0.00 57 1001.1
20260503035511 41 225 0.0 0.0 0.00 0.00 0.00 57 1001.0
20260503035352 41 225 0.0 0.0 0.00 0.00 0.00 57 1001.1
20260503035011 42 225 0.0 0.0 0.00 0.00 0.00 57 1001.0
20260503034011 42 225 0.0 0.0 0.00 0.00 0.00 56 1001.2
20260503033853 42 225 0.0 0.0 0.00 0.00 0.00 56 1001.2
20260503032352 43 225 0.0 0.0 0.00 0.00 0.00 55 1001.2
20260503032011 43 225 0.0 0.0 0.00 0.00 0.00 55 1001.2
20260503031510 43 225 0.0 0.0 0.00 0.00 0.00 55 1001.3
20260503031010 43 248 0.0 0.0 0.00 0.00 0.00 54 1001.3
20260503030853 43 248 0.0 0.0 0.00 0.00 0.00 54 1001.3
20260503030011 44 248 0.0 0.0 0.00 0.00 0.00 53 1001.3
20260503025510 44 248 0.0 0.0 0.00 0.00 0.00 53 1001.3
20260503025353 44 248 0.0 0.0 0.00 0.00 0.00 53 1001.3
20260503025011 44 248 0.0 0.0 0.00 0.00 0.00 52 1001.3
20260503024511 44 248 0.0 0.0 0.00 0.00 0.00 52 1001.3
20260503024011 44 248 0.0 0.0 0.00 0.00 0.00 52 1001.3
20260503023852 44 248 0.0 0.0 0.00 0.00 0.00 52 1001.3
20260503023010 45 248 0.0 0.0 0.00 0.00 0.00 52 1001.3
20260503022510 45 248 0.0 0.0 0.00 0.00 0.00 51 1001.3
20260503022353 45 248 0.0 0.0 0.00 0.00 0.00 51 1001.3
20260503021510 45 248 0.0 0.0 0.00 0.00 0.00 51 1001.3
20260503020853 46 248 0.0 0.0 0.00 0.00 0.00 50 1001.3
20260503020511 46 248 0.0 0.0 0.00 0.00 0.00 50 1001.1
20260503020010 46 203 0.0 0.0 0.00 0.00 0.00 50 1001.0
20260503015511 46 203 0.0 0.0 0.00 0.00 0.00 49 1001.1
20260503015353 46 203 0.0 0.0 0.00 0.00 0.00 49 1001.0
20260503015011 47 203 0.0 0.0 0.00 0.00 0.00 49 1001.0
20260503014011 47 203 0.0 0.0 0.00 0.00 0.00 48 1001.0
20260503013852 47 203 0.0 0.0 0.00 0.00 0.00 48 1001.0
20260503013510 47 225 0.0 0.0 0.00 0.00 0.00 47 1001.0
20260503013013 47 203 0.0 0.0 0.00 0.00 0.00 47 1001.0
20260503012511 47 225 0.0 0.0 0.00 0.00 0.00 46 1001.0
20260503012352 47 225 0.0 0.0 0.00 0.00 0.00 46 1001.0
20260503011011 48 225 0.0 0.0 0.00 0.00 0.00 46 1001.0
20260503010852 48 225 0.0 0.0 0.00 0.00 0.00 46 1001.0
20260503010510 48 225 0.0 0.0 0.00 0.00 0.00 45 1001.0
20260503010011 48 225 0.0 0.0 0.00 0.00 0.00 45 1001.0
20260503005510 48 225 0.0 0.0 0.00 0.00 0.00 45 1001.0
20260503005354 49 225 0.0 0.0 0.00 0.00 0.00 45 1001.0
20260503004510 49 225 0.0 0.0 0.00 0.00 0.00 45 1001.0
20260503004011 49 225 0.0 0.0 0.00 0.00 0.00 44 1000.9
20260503003852 49 203 0.0 0.0 0.00 0.00 0.00 44 1000.8
20260503003010 49 203 0.0 0.0 0.00 0.00 0.00 44 1000.6
20260503002509 50 248 0.0 0.0 0.00 0.00 0.00 43 1000.6
20260503002352 50 248 0.0 0.0 0.00 0.00 0.00 43 1000.6
20260503001511 50 225 0.0 0.0 0.00 0.00 0.00 43 1000.9
20260503001010 50 270 0.0 0.0 0.00 0.00 0.00 42 1001.0
20260503000852 51 270 0.0 0.0 0.00 0.00 0.00 42 1001.0
20260503000511 51 248 0.0 0.0 0.00 0.00 0.00 42 1001.0
20260503000010 51 248 0.0 0.0 0.00 0.00 0.00 42 1000.9
20260502235512 51 225 0.0 0.0 0.00 0.00 0.00 42 1000.9
20260502235352 51 270 0.0 0.0 0.00 0.00 0.00 42 1001.0
20260502234511 52 248 0.0 0.0 0.00 0.00 0.00 41 1001.0
20260502234011 52 270 0.0 0.0 0.00 0.00 0.00 41 1001.0
20260502233852 52 248 0.0 0.0 0.00 0.00 0.00 41 1001.0
20260502233511 53 270 0.0 0.0 0.00 0.00 0.00 41 1001.0
20260502233010 52 270 0.0 0.0 0.00 0.00 0.00 42 1001.0